Temperature
19 19 19 19 19 18 19 19 20 20 19 19 19 18 17 16 15 14 14 14 13 13 13 12 12 12 12 12 12 11 11 11 11 11 11 11 11 10 10 10 10 9 9 9
18 18 18 18 18 18 18 18 19 18 18 19 17 17 16 15 14 14 13 13 13 13 12 12 12 11 11 11 11 11 11 11 11 10 10 10 10 10 10 9 9 9 9 9
19 18 18 18 18 18 18 17 18 18 18 17 17 16 15 15 14 13 13 12 12 12 12 12 11 11 11 11 11 10 10 10 10 10 10 10 9 9 9 9 9 8 8 8
18 18 17 18 18 17 17 17 17 17 16 16 16 15 14 14 13 13 12 12 11 11 11 11 11 11 11 11 10 10 10 10 9 9 9 9 9 9 8 8 8 8 8 8
17 17 18 17 16 16 16 16 16 16 15 15 14 14 14 13 12 12 12 11 11 11 11 10 10 10 10 10 10 10 10 9 9 9 9 9 9 8 8 8 8 7 7 7
17 16 17 17 16 15 16 16 15 15 14 14 14 16 15 12 11 11 11 10 10 10 10 10 10 10 10 10 10 10 9 9 9 9 8 8 8 8 8 7 7 7 7 7
16 16 17 16 14 15 16 16 14 14 13 13 14 14 13 12 11 11 10 10 10 10 10 10 10 10 9 9 9 9 9 9 8 8 8 8 7 7 7 7 7 6 6 6
16 16 16 14 14 15 15 14 13 13 12 12 12 12 11 11 10 10 10 9 9 9 9 9 9 9 9 9 9 9 8 8 8 8 8 7 7 7 7 7 6 6 6 6
16 15 14 13 13 13 12 13 12 12 12 11 11 11 10 10 10 10 9 9 9 9 9 9 9 9 9 9 9 8 8 8 8 8 7 7 7 7 6 6 6 6 6 6
14 14 13 12 12 11 11 11 11 11 11 10 10 10 10 10 9 9 9 9 9 9 9 9 9 9 8 8 8 8 8 8 8 7 7 7 7 6 6 6 6 6 6 5
14 14 12 11 11 11 11 11 10 10 10 10 10 9 9 9 9 9 9 9 9 8 8 8 8 8 8 8 8 8 7 7 7 7 7 7 6 6 6 6 6 6 6 5
14 13 13 12 11 10 10 10 10 10 9 9 9 9 9 9 8 8 8 8 8 8 8 8 8 8 8 7 7 7 7 7 7 6 6 6 6 6 6 6 6 5 5 5
12 11 11 11 10 10 10 10 9 9 9 9 9 8 8 8 8 8 8 8 8 8 8 7 7 7 7 7 7 7 7 6 6 6 6 6 6 5 5 5 5 5 5 5
10 10 10 10 9 9 9 9 9 9 9 9 8 8 8 8 8 8 8 7 7 7 7 7 7 7 7 7 7 6 6 6 6 6 5 5 5 5 5 5 5 5 5 4
9 9 9 9 9 8 8 8 8 8 8 8 8 8 8 7 7 7 7 7 7 7 7 7 6 6 6 6 6 6 6 6 6 5 5 5 5 5 4 4 4 4 4 4
9 9 8 8 8 8 8 8 8 8 7 7 7 7 7 7 7 7 7 7 6 6 6 6 6 6 6 6 6 5 5 5 5 5 5 5 4 4 4 4 4 4 3 3
8 8 8 8 8 8 7 8 8 7 7 7 7 7 7 6 6 6 6 6 6 6 6 6 6 6 6 6 5 5 5 5 5 5 4 4 4 4 4 3 3 3 3 3
8 8 8 8 8 7 7 7 7 7 7 6 6 6 6 6 6 6 6 6 6 6 6 6 6 5 5 5 5 5 5 4 4 4 4 4 4 3 3 3 3 3 3 3
7 7 7 7 7 7 7 7 6 6 6 6 6 6 6 6 6 6 5 5 5 5 5 5 5 5 5 5 5 5 4 4 4 4 4 4 4 3 3 3 3 2 2 2
7 7 7 7 7 6 6 6 6 6 6 5 5 5 5 5 5 5 5 5 5 5 5 5 4 4 4 4 4 4 4 4 4 4 3 3 3 3 3 3 2 2 2 2
6 6 6 6 6 6 6 6 6 5 5 5 5 5 5 5 5 5 5 4 4 4 4 4 4 4 4 4 4 4 4 3 3 3 3 3 3 3 2 2 2 2 2 2
6 6 6 6 6 5 5 5 5 5 5 5 5 4 4 4 4 4 4 4 4 4 4 4 3 4 4 4 4 3 3 3 3 3 3 2 2 2 2 2 2 2 2 1
5 5 5 5 5 5 5 5 5 4 4 4 4 4 4 4 4 4 4 4 4 3 3 3 3 3 3 3 3 3 3 3 3 3 2 2 2 2 2 2 2 2 1 1
5 5 5 5 4 4 4 4 4 4 4 4 4 4 4 4 3 3 3 3 3 3 3 3 3 3 3 3 3 3 2 2 2 2 2 2 2 2 2 2 2 1 1 1
4 4 4 4 4 4 4 3 3 3 3 3 3 3 3 3 3 3 3 3 3 3 3 3 3 3 3 2 2 2 2 2 2 2 2 2 2 1 1 1 1 1 1 1
4 4 4 4 3 3 3 3 3 3 3 3 3 3 3 3 3 2 2 2 2 2 2 2 2 2 2 2 2 2 2 2 2 2 2 1 1 1 1 1 1 1 1 1
4 3 3 3 3 3 3 3 2 2 2 2 2 2 2 2 2 2 2 2 2 2 2 2 2 2 2 2 2 2 2 2 1 1 1 1 1 1 1 1 1 0 0 0
Wind_Speed
7 4 5 7 7 8 11 11 11 10 8 5 3 3 2 1 2 3 3 5 5 4 4 3 3 3 2 2 2 3 3 3 3 2 2 2 2 2 2 2 2 2 2 1
6 5 6 7 7 8 9 9 10 10 8 4 2 1 2 2 2 3 3 3 4 5 5 4 4 3 3 3 3 3 4 3 2 2 2 2 2 2 2 2 2 1 1 1
6 4 6 8 7 7 6 5 7 9 6 3 3 2 3 3 3 3 3 3 4 4 5 5 5 4 4 4 3 4 3 3 2 3 2 2 2 2 2 2 2 2 1 1
5 5 8 1 2 2 4 4 4 4 3 3 4 3 2 2 2 3 3 3 4 4 4 4 4 4 4 4 4 3 3 3 3 3 3 2 2 2 2 2 2 2 2 2
5 7 7 3 1 2 5 4 3 4 4 4 4 3 2 0 2 3 3 3 3 3 3 3 4 3 4 4 4 4 4 4 3 4 3 3 3 2 2 2 2 2 2 2
5 6 6 1 1 1 4 4 0 2 3 3 3 4 3 2 2 3 2 1 1 1 2 3 3 3 4 4 4 4 4 4 3 4 4 3 3 3 3 3 3 2 2 3
8 7 5 2 1 2 4 2 2 2 2 2 3 4 3 2 2 2 1 1 0 0 1 1 2 3 4 4 4 3 3 3 3 3 4 3 3 3 3 3 3 3 2 3
6 7 5 3 2 2 3 4 2 2 2 3 4 3 2 1 1 1 1 1 0 0 0 1 2 3 4 3 3 2 3 3 3 3 3 3 3 3 3 3 3 3 3 3
5 3 2 2 1 2 4 3 3 3 3 3 3 3 3 2 1 1 1 1 1 1 1 1 1 2 3 2 2 3 3 3 3 3 2 3 3 4 3 3 3 3 3 3
5 5 3 3 3 4 4 4 4 3 3 3 3 3 3 2 2 1 1 1 1 1 1 1 1 2 2 2 2 3 3 3 2 2 2 3 3 3 3 3 3 3 3 3
7 5 3 5 5 4 4 4 3 3 3 3 2 2 2 2 1 1 1 1 1 1 1 1 1 1 1 2 2 3 3 2 2 2 2 2 2 2 3 3 3 4 4 3
6 4 5 5 4 5 4 4 3 3 3 2 2 2 1 1 1 1 1 1 1 2 1 1 1 1 1 1 2 3 2 2 2 1 1 2 2 1 2 1 2 2 3 3
6 5 5 5 4 4 5 4 4 3 3 3 2 2 1 1 1 1 1 1 2 2 2 2 2 1 1 1 2 2 2 2 2 2 2 2 2 2 1 1 1 0 1 2
5 4 5 5 5 4 5 4 4 3 3 2 2 2 2 1 1 1 2 2 2 2 2 2 2 1 1 1 2 2 2 1 2 2 2 2 2 2 2 2 1 1 1 1
6 5 5 4 4 4 3 3 3 3 2 2 2 2 2 2 2 2 2 2 2 2 1 1 2 1 1 2 2 3 2 2 2 1 1 1 2 2 2 2 2 1 1 1
5 4 4 4 4 4 3 3 3 3 3 2 2 2 2 2 2 2 1 2 2 2 2 2 2 2 2 2 3 2 2 1 1 2 2 2 2 2 2 2 2 1 1 1
5 5 5 5 5 5 5 4 4 3 3 3 3 2 2 2 2 1 2 2 2 2 2 2 2 2 2 3 3 2 2 2 3 2 2 2 2 2 2 2 2 2 2 1
6 6 6 6 5 5 4 4 3 3 3 3 2 2 2 2 3 2 2 2 2 2 2 2 2 2 2 2 2 2 2 2 3 3 3 3 3 3 3 3 3 3 2 1
5 5 4 4 4 3 3 2 2 2 2 2 2 3 3 3 2 2 2 3 3 3 2 2 2 2 2 2 2 2 2 3 3 3 3 3 3 3 3 3 3 3 3 2
4 3 3 2 2 2 2 2 2 1 1 2 2 2 2 2 2 3 3 3 3 2 3 2 2 2 2 2 2 2 3 3 3 3 3 3 3 3 3 3 3 3 3 3
3 3 2 2 2 2 2 2 2 2 2 2 2 2 2 2 2 3 3 3 2 2 2 2 2 2 2 2 3 3 3 3 3 3 3 3 3 4 3 4 3 3 3 3
3 2 2 2 2 2 1 1 1 1 2 2 2 2 2 2 3 3 3 3 2 2 2 2 2 2 2 2 3 3 3 3 4 3 3 3 4 4 4 4 4 4 4 3
2 2 2 2 2 2 1 1 2 2 2 2 2 3 3 3 2 3 3 2 2 3 3 3 2 3 3 3 3 3 4 4 4 4 4 4 4 4 4 4 4 4 4 4
2 2 2 2 2 2 2 2 2 2 2 2 2 3 3 3 3 3 3 3 3 4 3 3 3 4 4 3 3 4 4 4 4 4 4 4 4 4 4 4 4 4 4 5
2 2 2 2 2 2 2 2 2 2 2 2 3 3 3 2 3 3 3 4 4 4 3 3 4 4 4 4 4 4 4 4 4 4 4 4 4 4 4 4 4 4 4 4
2 2 2 2 2 2 1 2 2 2 2 3 3 2 2 2 3 3 3 3 4 4 3 3 3 4 4 4 5 5 5 5 5 5 5 5 5 5 4 4 5 4 4 4
2 2 1 1 1 2 2 2 2 3 3 3 4 3 3 3 3 3 3 3 3 3 3 3 3 3 4 4 4 5 5 4 4 4 4 5 5 5 5 5 5 4 4 4
Wind_Direction
269 270 245 248 249 235 239 249 256 263 265 274 288 280 286 258 192 184 189 187 187 190 190 188 190 187 186 186 192 197 196 206 218 222 218 210 201 199 195 207 216 221 230 243
251 241 241 250 252 241 239 248 251 256 263 292 303 279 277 263 217 206 206 210 206 206 207 208 207 206 204 203 208 207 203 207 209 198 184 194 204 198 190 205 219 224 237 251
250 247 248 247 248 241 232 236 242 249 260 285 286 273 275 271 239 225 226 230 230 224 220 216 217 214 212 213 212 214 208 200 192 190 191 196 195 186 189 203 214 231 246 267
259 250 245 251 63 226 221 235 250 262 283 281 281 278 289 289 263 253 249 242 241 238 233 230 222 215 214 215 211 215 211 201 190 190 199 201 203 202 203 206 218 234 241 251
243 253 261 235 225 224 232 245 264 258 277 298 300 260 250 345 306 280 261 254 248 246 236 227 221 217 214 216 211 213 215 213 205 202 205 205 205 208 213 211 218 236 238 240
234 250 255 286 65 291 240 236 4 291 284 297 291 263 282 337 315 309 303 285 262 228 234 224 217 208 207 210 211 217 217 220 216 211 212 217 213 204 208 209 215 228 230 239
239 247 254 13 56 196 231 329 14 300 286 272 268 292 313 323 322 333 330 305 292 254 247 226 205 195 200 204 212 213 212 217 210 210 212 217 217 205 199 200 213 228 232 244
231 240 245 83 143 210 320 357 333 304 288 277 291 318 313 303 311 336 325 300 274 204 162 197 197 198 202 205 208 203 201 203 204 207 213 211 205 202 201 194 207 221 229 238
241 251 25 135 199 312 327 317 320 313 310 298 298 311 304 277 262 251 273 257 245 182 150 159 186 207 205 207 208 202 197 200 204 203 209 205 203 198 201 202 211 222 229 237
247 248 269 260 265 291 306 308 313 305 298 278 284 292 290 271 256 260 266 241 226 200 192 182 191 209 219 213 207 205 201 202 206 203 205 208 208 209 208 211 219 226 230 240
249 256 267 257 264 281 295 299 305 303 289 272 274 276 285 280 268 265 264 252 223 207 219 232 199 199 214 211 200 194 195 197 204 202 195 196 201 223 230 236 250 247 237 239
259 257 257 269 276 277 275 275 277 281 285 274 272 267 272 269 275 260 245 225 235 237 232 226 202 197 201 198 200 192 189 190 196 197 199 189 186 181 39 343 347 319 307 284
272 284 282 284 283 276 272 274 275 266 263 262 269 269 263 258 247 233 225 227 234 239 242 224 199 200 197 192 201 197 197 196 197 198 197 200 197 201 208 44 60 64 346 325
256 261 266 269 278 279 278 278 277 264 260 253 258 256 248 244 243 240 245 253 253 244 230 214 205 218 218 199 208 217 210 190 192 200 201 212 220 219 214 222 254 304 339 354
241 250 261 272 271 272 278 274 263 259 261 262 260 250 243 242 241 250 262 265 258 243 221 216 221 238 230 216 219 222 217 205 197 202 205 216 230 232 227 232 245 262 298 357
244 249 247 252 254 261 264 258 252 255 258 260 259 256 260 256 251 249 251 248 239 229 226 231 242 248 225 223 226 224 219 193 220 215 211 216 226 232 235 240 249 258 273 296
237 244 244 248 249 250 255 257 257 252 252 254 257 256 258 259 248 244 255 252 240 235 235 239 246 242 223 222 224 225 220 201 201 218 217 216 225 233 235 238 245 254 262 304
243 248 243 242 244 246 253 262 262 252 247 252 248 244 245 249 250 252 257 255 243 244 249 252 251 243 225 223 228 226 219 216 217 223 223 221 226 231 235 238 244 253 266 255
245 247 242 244 245 242 245 254 262 259 251 236 233 240 245 251 256 257 251 245 244 249 261 264 269 247 239 238 236 221 220 220 220 224 225 220 224 228 232 235 241 247 254 254
232 236 234 240 239 235 238 244 248 250 248 233 238 249 253 253 249 254 251 247 248 265 270 268 246 246 247 234 231 229 221 221 224 228 232 233 233 235 235 239 243 247 252 255
212 216 217 223 238 250 246 234 227 238 250 242 245 255 265 265 251 246 245 249 260 278 277 257 251 254 246 244 223 229 227 228 229 230 232 233 234 236 237 240 242 246 249 252
213 213 217 223 228 243 255 244 236 248 257 256 258 262 264 260 254 249 244 254 267 274 265 252 252 260 257 237 224 231 232 233 236 235 236 237 238 240 243 246 247 249 250 254
223 222 227 232 232 238 242 240 242 247 252 255 255 260 262 266 256 253 257 266 265 268 263 254 261 249 241 235 232 232 233 233 235 236 236 239 239 241 244 246 249 251 252 254
214 217 226 227 216 216 230 248 254 260 265 267 261 264 266 268 268 263 271 263 260 261 257 250 242 241 240 237 233 234 236 237 238 240 242 243 244 246 249 249 250 252 255 258
220 217 212 206 213 226 238 246 251 263 274 275 272 271 272 272 276 279 271 266 265 257 257 242 232 240 242 239 237 238 240 240 242 243 242 244 245 246 248 248 249 253 256 258
219 223 224 226 231 232 230 234 246 262 270 274 277 276 277 275 271 273 273 267 265 263 260 257 250 244 246 245 244 243 243 243 241 243 245 247 247 246 247 249 251 254 257 258
222 225 226 236 242 235 233 237 243 254 260 263 269 271 270 267 264 267 268 268 270 266 262 259 256 253 252 248 247 246 245 244 245 245 246 246 246 246 246 248 252 255 257 260
Height
1489 1490 1491 1492 1492 1493 1493 1490 1490 1488 1489 1490 1492 1495 1496 1498 1499 1500 1500 1502 1503 1504 1505 1507 1508 1509 1509 1510 1511 1511 1512 1512 1512 1513 1513 1513 1513 1513 1514 1514 1514 1515 1515 1515
1491 1491 1491 1491 1491 1491 1492 1491 1489 1490 1491 1491 1494 1495 1496 1497 1498 1498 1499 1500 1501 1502 1503 1504 1505 1506 1506 1507 1508 1508 1509 1509 1509 1510 1510 1510 1510 1510 1510 1511 1511 1512 1512 1512
1488 1490 1490 1489 1488 1488 1489 1490 1489 1489 1490 1492 1493 1494 1495 1496 1496 1497 1497 1498 1498 1499 1500 1501 1502 1503 1503 1504 1505 1505 1506 1506 1506 1506 1506 1507 1507 1507 1507 1508 1508 1508 1508 1508
1489 1491 1494 1487 1486 1486 1488 1490 1490 1490 1491 1492 1492 1493 1494 1495 1495 1495 1496 1496 1496 1496 1497 1498 1499 1500 1501 1501 1502 1502 1502 1503 1503 1503 1503 1504 1504 1504 1504 1505 1505 1505 1505 1505
1490 1489 1486 1486 1487 1488 1488 1488 1490 1490 1491 1492 1492 1492 1492 1493 1494 1494 1494 1494 1493 1494 1494 1495 1495 1496 1497 1498 1499 1499 1499 1499 1500 1500 1500 1500 1500 1500 1501 1501 1502 1502 1502 1502
1489 1491 1489 1485 1487 1488 1489 1487 1489 1490 1490 1490 1490 1488 1489 1491 1491 1491 1491 1491 1491 1491 1491 1492 1493 1493 1494 1495 1496 1496 1496 1496 1497 1497 1497 1497 1497 1497 1498 1498 1499 1499 1499 1499
1487 1487 1482 1486 1488 1489 1490 1487 1489 1489 1490 1490 1489 1489 1490 1489 1490 1489 1489 1489 1489 1489 1489 1489 1490 1491 1491 1492 1493 1493 1493 1493 1494 1494 1494 1495 1495 1495 1495 1495 1496 1497 1497 1496
1486 1487 1487 1488 1488 1488 1488 1488 1488 1488 1489 1489 1489 1488 1488 1488 1488 1487 1487 1487 1487 1487 1487 1487 1488 1488 1489 1489 1490 1490 1490 1491 1491 1491 1492 1492 1492 1492 1492 1493 1493 1493 1493 1493
1484 1486 1487 1488 1488 1489 1489 1488 1488 1488 1488 1488 1487 1487 1486 1486 1486 1486 1486 1485 1485 1485 1485 1485 1486 1486 1486 1487 1487 1487 1488 1488 1488 1488 1489 1489 1489 1489 1490 1490 1490 1490 1490 1490
1485 1484 1487 1487 1487 1487 1487 1487 1487 1487 1486 1486 1485 1485 1485 1484 1484 1484 1484 1483 1483 1483 1483 1483 1484 1484 1484 1484 1485 1485 1485 1485 1485 1485 1486 1486 1486 1487 1487 1487 1487 1487 1487 1487
1482 1484 1486 1485 1485 1486 1486 1485 1485 1485 1484 1484 1483 1483 1483 1482 1482 1482 1482 1482 1482 1482 1482 1482 1482 1482 1482 1482 1482 1483 1483 1483 1483 1483 1483 1483 1484 1484 1484 1484 1484 1484 1483 1483
1479 1481 1482 1482 1483 1483 1483 1483 1483 1482 1482 1482 1482 1481 1481 1480 1480 1480 1480 1480 1480 1480 1480 1480 1480 1480 1480 1481 1481 1481 1480 1480 1480 1480 1480 1481 1481 1481 1481 1481 1481 1480 1480 1480
1480 1481 1481 1481 1481 1481 1481 1480 1480 1480 1480 1480 1479 1479 1479 1479 1478 1478 1479 1479 1478 1478 1478 1479 1479 1479 1479 1479 1479 1479 1479 1478 1478 1478 1478 1478 1478 1478 1478 1478 1478 1477 1477 1477
1478 1479 1478 1478 1478 1478 1478 1478 1478 1478 1478 1478 1477 1477 1477 1477 1477 1477 1477 1477 1477 1477 1477 1477 1477 1477 1477 1477 1477 1477 1477 1477 1476 1476 1476 1476 1476 1476 1475 1475 1475 1474 1474 1474
1475 1476 1476 1475 1475 1475 1475 1475 1475 1475 1475 1475 1475 1475 1474 1474 1474 1475 1475 1475 1475 1475 1475 1475 1475 1475 1475 1475 1475 1475 1475 1475 1475 1474 1474 1474 1474 1474 1473 1473 1473 1473 1472 1471
1472 1472 1472 1473 1472 1472 1472 1473 1473 1472 1472 1472 1472 1472 1472 1472 1472 1472 1472 1472 1472 1472 1472 1472 1473 1473 1473 1473 1473 1473 1473 1473 1473 1472 1473 1472 1472 1472 1471 1471 1471 1471 1470 1469
1469 1469 1469 1469 1469 1470 1470 1470 1470 1470 1470 1470 1469 1469 1469 1469 1470 1470 1470 1470 1470 1470 1470 1470 1470 1470 1470 1470 1471 1471 1471 1470 1470 1470 1470 1470 1470 1470 1469 1469 1469 1468 1468 1467
1466 1466 1466 1466 1466 1467 1467 1467 1467 1467 1467 1467 1467 1467 1467 1467 1467 1467 1467 1468 1468 1468 1468 1468 1468 1468 1468 1468 1468 1468 1468 1468 1468 1468 1468 1468 1468 1467 1467 1467 1466 1466 1465 1464
1462 1463 1463 1464 1464 1464 1464 1464 1464 1464 1464 1464 1464 1465 1465 1465 1465 1465 1465 1465 1465 1465 1465 1465 1465 1465 1465 1465 1465 1465 1465 1465 1465 1465 1465 1465 1465 1465 1464 1464 1464 1463 1462 1461
1459 1460 1460 1461 1462 1462 1462 1462 1462 1462 1462 1462 1462 1462 1462 1462 1462 1462 1463 1463 1463 1462 1462 1462 1462 1462 1462 1462 1462 1462 1462 1462 1462 1461 1461 1461 1461 1461 1461 1461 1460 1460 1459 1458
1457 1457 1458 1459 1459 1460 1460 1460 1460 1460 1460 1460 1460 1460 1460 1460 1460 1460 1460 1460 1460 1459 1459 1459 1459 1459 1459 1459 1459 1459 1459 1458 1458 1458 1458 1458 1458 1458 1458 1457 1457 1456 1456 1455
1455 1456 1456 1457 1457 1457 1457 1458 1458 1458 1458 1458 1458 1458 1458 1457 1457 1457 1457 1457 1457 1456 1456 1456 1456 1456 1456 1456 1456 1456 1455 1455 1455 1455 1455 1454 1454 1454 1454 1453 1453 1452 1452 1452
1453 1453 1454 1455 1455 1455 1455 1455 1455 1455 1455 1455 1455 1455 1455 1455 1455 1454 1454 1454 1454 1453 1453 1453 1453 1453 1453 1453 1453 1452 1452 1452 1451 1451 1451 1451 1450 1450 1450 1449 1449 1449 1448 1448
1451 1451 1452 1452 1453 1453 1453 1453 1453 1453 1453 1453 1453 1453 1453 1452 1452 1451 1451 1451 1450 1450 1450 1450 1450 1449 1449 1449 1449 1449 1448 1448 1448 1448 1447 1447 1447 1446 1446 1446 1445 1445 1444 1444
1449 1449 1449 1450 1450 1450 1450 1450 1451 1451 1450 1450 1450 1450 1450 1449 1449 1448 1448 1448 1447 1447 1447 1446 1446 1446 1445 1445 1445 1445 1445 1444 1444 1444 1443 1443 1443 1442 1442 1442 1441 1441 1440 1440
1447 1447 1447 1447 1448 1448 1448 1448 1448 1448 1448 1447 1447 1447 1446 1446 1446 1445 1445 1444 1444 1443 1443 1443 1442 1442 1441 1441 1441 1441 1441 1440 1440 1440 1439 1439 1438 1438 1438 1438 1437 1437 1436 1435
1444 1444 1444 1445 1445 1445 1445 1445 1445 1445 1445 1445 1444 1444 1443 1443 1443 1442 1442 1441 1441 1440 1440 1439 1439 1438 1438 1437 1437 1437 1437 1436 1436 1436 1435 1435 1434 1434 1434 1433 1433 1432 1431 1431